History for DABS

Tebessa, Algeria

Daily Weekly Monthly
Daily Summary for Thursday, October 2, 2014
  Actual: Average: Record:
Temperature
Mean Temperature: 74 °F / 24 °C - :  
Max Temperature: 87 °F / 31 °C 72 °F / 23 °C - ()
Min Temperature: 61 °F / 16 °C 48 °F / 10 °C - ()
Cooling Degree Days 9    
Growing Degree Days 24 (Base 50)    
Moisture
Dew Point 56 °F / 13 °C    
Average Humidity 60    
Maximum Humidity 94    
Minimum Humidity 21    
Precipitation
Precipitation 0.00 in / 0.0 cm 0.03 in / 0.8 cm - ()
Sea Level Pressure
Sea Level Pressure 30.26 in / 1024.63 hPa   
Wind
Wind Speed 2 mph / 3 km/h ()  
Max Wind Speed 14 mph / 22 km/h   
Max Gust Speed -   
Visibility 6.5 miles / 10.6 kilometers   
Events     

Key: T is trace of precipitation, MM is missing value
Source: Averaged Metar Reports

Graphs

Observations

History Graphs Observations

Obs Go Here...

Features

Weather Apps

WunderRadio

Weather Underground Apps
Check out our wide variety of mobile and setup applications.

Weather Underground Applications

Top of Page

Copyright© 2014
Weather Underground, Inc.
Time(CET)TemperatureDew PointHumidity Sea Level Pressure Visibility Wind DirectionWind SpeedGust SpeedPrecipitationEvents Conditions
12:00 AM 66.2 °F / 19.0 °C 62.6 °F / 17.0 °C 88% 30.30 in / 1026 hPa 6.2 miles / 10.0 kilometers Calm Calm - N/A   Scattered Clouds
1:00 AM 65 °F / 18 °C 62 °F / 17 °C 87%  in /  hPa 6 miles / 10 kilometers Calm Calm - -   Partly Cloudy
1:00 AM 64.4 °F / 18.0 °C 62.6 °F / 17.0 °C 94% 30.30 in / 1026 hPa 6.2 miles / 10.0 kilometers Calm Calm - N/A   Scattered Clouds
2:00 AM 64.4 °F / 18.0 °C 62.6 °F / 17.0 °C 94% 30.30 in / 1026 hPa 6.2 miles / 10.0 kilometers Calm Calm - N/A   Scattered Clouds
3:00 AM 62.6 °F / 17.0 °C 60.8 °F / 16.0 °C 94% 30.30 in / 1026 hPa 6.2 miles / 10.0 kilometers Calm Calm - N/A   Scattered Clouds
4:00 AM 62 °F / 17 °C 58 °F / 14 °C 83%  in /  hPa 6 miles / 10 kilometers Calm Calm - -   Scattered Clouds
4:00 AM 62.6 °F / 17.0 °C 59.0 °F / 15.0 °C 88% 30.27 in / 1025 hPa 6.2 miles / 10.0 kilometers Calm Calm - N/A   Scattered Clouds
4:30 AM 62.6 °F / 17.0 °C 59.0 °F / 15.0 °C 88% 30.30 in / 1026 hPa 6.2 miles / 10.0 kilometers Calm Calm - N/A   Partly Cloudy
5:00 AM 62.6 °F / 17.0 °C 59.0 °F / 15.0 °C 88% 30.27 in / 1025 hPa 6.2 miles / 10.0 kilometers Calm Calm - N/A   Scattered Clouds
5:30 AM 60.8 °F / 16.0 °C 57.2 °F / 14.0 °C 88% 30.30 in / 1026 hPa 6.2 miles / 10.0 kilometers Calm Calm - N/A   Partly Cloudy
6:00 AM 62.6 °F / 17.0 °C 59.0 °F / 15.0 °C 88% 30.27 in / 1025 hPa 6.2 miles / 10.0 kilometers SE 4.6 mph / 7.4 km/h - N/A   Scattered Clouds
6:30 AM 62.6 °F / 17.0 °C 59.0 °F / 15.0 °C 88% 30.27 in / 1025 hPa 6.2 miles / 10.0 kilometers Calm Calm - N/A   Scattered Clouds
7:00 AM 63 °F / 17 °C 57 °F / 14 °C 76%  in /  hPa 6 miles / 10 kilometers Calm Calm - -   Scattered Clouds
7:00 AM 62.6 °F / 17.0 °C 57.2 °F / 14.0 °C 82% 30.27 in / 1025 hPa 6.2 miles / 10.0 kilometers Calm Calm - N/A   Scattered Clouds
7:30 AM 64.4 °F / 18.0 °C 59.0 °F / 15.0 °C 83% 30.27 in / 1025 hPa 6.2 miles / 10.0 kilometers Calm Calm - N/A   Scattered Clouds
8:00 AM 64.4 °F / 18.0 °C 57.2 °F / 14.0 °C 77% 30.27 in / 1025 hPa 6.2 miles / 10.0 kilometers Calm Calm - N/A   Scattered Clouds
8:30 AM 68.0 °F / 20.0 °C 57.2 °F / 14.0 °C 68% 30.27 in / 1025 hPa 6.2 miles / 10.0 kilometers Calm Calm - N/A   Scattered Clouds
9:00 AM 69.8 °F / 21.0 °C 57.2 °F / 14.0 °C 64% 30.27 in / 1025 hPa 6.2 miles / 10.0 kilometers Calm Calm - N/A   Scattered Clouds
9:30 AM 69.8 °F / 21.0 °C 57.2 °F / 14.0 °C 64% 30.27 in / 1025 hPa 6.2 miles / 10.0 kilometers Calm Calm - N/A   Scattered Clouds
10:00 AM 77 °F / 25 °C 58 °F / 14 °C 41%  in /  hPa 9 miles / 15 kilometers Calm Calm - -   Scattered Clouds
10:00 AM 77.0 °F / 25.0 °C 57.2 °F / 14.0 °C 50% 30.27 in / 1025 hPa 6.2 miles / 10.0 kilometers Calm Calm - N/A   Partly Cloudy
10:30 AM 78.8 °F / 26.0 °C 57.2 °F / 14.0 °C 47% 30.27 in / 1025 hPa 6.2 miles / 10.0 kilometers Calm Calm - N/A   Partly Cloudy
11:00 AM 80.6 °F / 27.0 °C 55.4 °F / 13.0 °C 42% 30.27 in / 1025 hPa 6.2 miles / 10.0 kilometers Calm Calm - N/A   Partly Cloudy
11:30 AM 82.4 °F / 28.0 °C 55.4 °F / 13.0 °C 39% 30.27 in / 1025 hPa 6.2 miles / 10.0 kilometers Calm Calm - N/A   Partly Cloudy
12:00 PM 82.4 °F / 28.0 °C 55.4 °F / 13.0 °C 39% 30.27 in / 1025 hPa 6.2 miles / 10.0 kilometers WNW 4.6 mph / 7.4 km/h - N/A   Partly Cloudy
12:30 PM 84.2 °F / 29.0 °C 53.6 °F / 12.0 °C 35% 30.24 in / 1024 hPa 6.2 miles / 10.0 kilometers NW 11.5 mph / 18.5 km/h - N/A   Partly Cloudy
1:00 PM 85 °F / 30 °C 51 °F / 11 °C 21%  in /  hPa 12 miles / 20 kilometers NW 11.5 mph / 18.5 km/h - -   Scattered Clouds
1:00 PM 86.0 °F / 30.0 °C 51.8 °F / 11.0 °C 31% 30.24 in / 1024 hPa 6.2 miles / 10.0 kilometers NW 11.5 mph / 18.5 km/h - N/A   Partly Cloudy
1:30 PM 86.0 °F / 30.0 °C 51.8 °F / 11.0 °C 31% 30.24 in / 1024 hPa 6.2 miles / 10.0 kilometers Calm Calm - N/A   Partly Cloudy
2:00 PM 87.8 °F / 31.0 °C 51.8 °F / 11.0 °C 29% 30.24 in / 1024 hPa 6.2 miles / 10.0 kilometers West 6.9 mph / 11.1 km/h - N/A   Partly Cloudy
3:00 PM 87.8 °F / 31.0 °C 50.0 °F / 10.0 °C 27% 30.21 in / 1023 hPa 6.2 miles / 10.0 kilometers NNW 9.2 mph / 14.8 km/h - N/A   Scattered Clouds
3:30 PM 87.8 °F / 31.0 °C 50.0 °F / 10.0 °C 27% 30.21 in / 1023 hPa 6.2 miles / 10.0 kilometers NNW 9.2 mph / 14.8 km/h - N/A   Scattered Clouds
4:00 PM 84 °F / 29 °C 51 °F / 10 °C 22%  in /  hPa 9 miles / 15 kilometers North 4.6 mph / 7.4 km/h - -   Partly Cloudy
4:00 PM 84.2 °F / 29.0 °C 51.8 °F / 11.0 °C 33% 30.18 in / 1022 hPa 6.2 miles / 10.0 kilometers North 4.6 mph / 7.4 km/h - N/A   Scattered Clouds
4:30 PM 84.2 °F / 29.0 °C 53.6 °F / 12.0 °C 35% 30.18 in / 1022 hPa 6.2 miles / 10.0 kilometers West 11.5 mph / 18.5 km/h - N/A   Scattered Clouds
5:00 PM 82.4 °F / 28.0 °C 50.0 °F / 10.0 °C 32% 30.18 in / 1022 hPa 6.2 miles / 10.0 kilometers West 13.8 mph / 22.2 km/h - N/A   Mostly Cloudy